Weather History for Cleveland, OH

Change the Weather History Date:

Saturday, October 5, 2013

  Actual Average Record
Temperature  
Mean Temperature 72 °F 57 °F  
Max Temperature 77 °F 66 °F 88 °F (1951)
Min Temperature 66 °F 49 °F 32 °F (1980)
Degree Days  
Heating Degree Days 0 8  
Month to date heating degree days 0 38  
Since 1 July heating degree days 94 141  
Cooling Degree Days 7 1  
Month to date cooling degree days 31 5  
Year to date cooling degree days 886 809  
Growing Degree Days 22 (Base 50)    
Moisture  
Dew Point 66 °F    
Average Humidity 80    
Maximum Humidity 90    
Minimum Humidity 69    
Precipitation  
Precipitation 0.59 in 0.11 in 2.26 in (1983)
Month to date precipitation 0.59 0.54  
Year to date precipitation 30.76 29.89  
Snow  
Snow 0.00 in 0.00 in - ()
Month to date snowfall 0.0 0.0  
Since 1 July snowfall 0.0 0.0  
Since 1 September snowfall 0.0 0.0  
Snow Depth 0.00 in    
Sea Level Pressure  
Sea Level Pressure 30.04 in    
Wind  
Wind Speed 6 mph (South)    
Max Wind Speed 15 mph    
Max Gust Speed 18 mph    
Visibility 7 miles    
Events Rain    
T = Trace of Precipitation, MM = Missing Value Source: NWS Daily Summary

Daily Weather History Graph

Daily Weather History Graph

Search for Another Location

Airport:

Trip Planner

Search our weather history database for the weather conditions in past years. The results will help you decide how hot, cold, wet, or windy it might be!

Date:

Astronomy

Oct. 05, 2013 Rise Set
Actual Time 7:28 AM EDT 7:02 PM EDT
Civil Twilight 7:01 AM EDT 7:29 PM EDT
Nautical Twilight 6:28 AM EDT 8:01 PM EDT
Astronomical Twilight 5:56 AM EDT 8:33 PM EDT
Moon 8:07 AM EDT (10/5) 7:19 PM EDT (10/5)
Length of Visible Light 12h 28m
Length of Day
11h 33m
New Moon, 0% of the Moon is Illuminated
Oct 5
New Moon
Oct 11
First Quarter
Oct 18
Full
Oct 26
Last Quarter
Nov 3
New

Hourly Weather History & Observations

Time (EDT) Temp. Dew Point Humidity Pressure Visibility Wind Dir Wind Speed Gust Speed Precip Events Conditions
12:51 AM 68.0 °F 63.0 °F 84% 30.06 in 10.0 mi SSE 4.6 mph - N/A   Scattered Clouds
1:51 AM 69.1 °F 64.0 °F 84% 30.06 in 10.0 mi SSW 3.5 mph - N/A   Mostly Cloudy
2:51 AM 69.1 °F 64.0 °F 84% 30.05 in 10.0 mi SSE 6.9 mph - N/A   Scattered Clouds
3:51 AM 68.0 °F 64.0 °F 87% 30.05 in 10.0 mi WNW 3.5 mph - N/A   Overcast
4:51 AM 66.9 °F 63.0 °F 87% 30.06 in 9.0 mi Calm Calm - N/A   Mostly Cloudy
5:51 AM 68.0 °F 64.0 °F 87% 30.06 in 9.0 mi South 6.9 mph - N/A   Mostly Cloudy
6:51 AM 68.0 °F 64.0 °F 87% 30.06 in 8.0 mi SSE 5.8 mph - N/A   Mostly Cloudy
7:51 AM 68.0 °F 64.0 °F 87% 30.07 in 6.0 mi SSE 5.8 mph - N/A   Mostly Cloudy
8:47 AM 69.8 °F 64.4 °F 83% 30.08 in 8.0 mi South 6.9 mph - N/A   Mostly Cloudy
8:51 AM 69.1 °F 64.9 °F 87% 30.07 in 9.0 mi South 6.9 mph - N/A   Mostly Cloudy
9:05 AM 70.0 °F 64.9 °F 84% 30.08 in 10.0 mi South 5.8 mph - N/A   Overcast
9:27 AM 70.0 °F 64.0 °F 81% 30.08 in 10.0 mi SSE 5.8 mph - N/A   Mostly Cloudy
9:51 AM 72.0 °F 64.9 °F 78% 30.06 in 10.0 mi South 6.9 mph - N/A   Mostly Cloudy
10:51 AM 75.9 °F 64.9 °F 69% 30.04 in 10.0 mi East 3.5 mph - N/A   Mostly Cloudy
11:13 AM 75.9 °F 64.9 °F 69% 30.06 in 10.0 mi Calm Calm - N/A   Overcast
11:51 AM 75.9 °F 64.9 °F 69% 30.04 in 10.0 mi SW 4.6 mph - N/A   Overcast
12:51 PM 73.0 °F 68.0 °F 84% 30.07 in 3.0 mi WSW 11.5 mph - 0.03 in Rain Rain
12:54 PM 73.0 °F 68.0 °F 84% 30.09 in 1.5 mi WSW 15.0 mph - 0.03 in Rain Heavy Rain
12:59 PM 71.1 °F 66.9 °F 87% 30.08 in 0.8 mi WSW 6.9 mph - 0.17 in Rain Heavy Rain
1:08 PM 72.0 °F 68.0 °F 87% 30.08 in 1.0 mi NNE 3.5 mph - 0.26 in Rain Light Rain
1:11 PM 72.0 °F 68.0 °F 87% 30.08 in 1.8 mi North 3.5 mph - 0.26 in Rain Light Rain
1:13 PM 72.0 °F 68.0 °F 87% 30.07 in 3.0 mi North 4.6 mph - 0.26 in Rain Light Rain
1:20 PM 72.0 °F 68.0 °F 87% 30.07 in 8.0 mi NNE 3.5 mph - 0.27 in Rain Light Rain
1:51 PM 72.0 °F 68.0 °F 87% 30.04 in 10.0 mi SE 4.6 mph - 0.27 in   Overcast
2:43 PM 72.0 °F 69.1 °F 91% 30.04 in 2.5 mi South 5.8 mph - 0.03 in Rain Light Rain
2:48 PM 71.6 °F 69.8 °F 94% 30.04 in 1.0 mi SSW 3.5 mph - 0.08 in Rain Heavy Rain
2:51 PM 72.0 °F 69.1 °F 91% 30.02 in 0.8 mi South 4.6 mph - 0.11 in Rain Heavy Rain
3:06 PM 71.1 °F 66.9 °F 87% 30.03 in 2.0 mi South 3.5 mph - 0.18 in Rain Light Rain
3:15 PM 72.0 °F 68.0 °F 87% 30.02 in 7.0 mi East 3.5 mph - 0.18 in Rain Light Rain
3:51 PM 73.0 °F 69.1 °F 87% 29.99 in 6.0 mi ESE 9.2 mph - 0.18 in   Overcast
4:43 PM 73.9 °F 69.1 °F 85% 29.99 in 9.0 mi SSE 12.7 mph - N/A   Mostly Cloudy
4:51 PM 73.9 °F 69.1 °F 85% 29.97 in 9.0 mi SSE 9.2 mph - N/A   Overcast
5:51 PM 73.9 °F 69.1 °F 85% 29.96 in 10.0 mi South 9.2 mph - 0.00 in   Overcast
6:51 PM 73.0 °F 68.0 °F 84% 29.95 in 10.0 mi SSW 5.8 mph - N/A   Mostly Cloudy
7:51 PM 72.0 °F 68.0 °F 87% 29.98 in 8.0 mi Calm Calm - N/A   Mostly Cloudy
8:51 PM 71.1 °F 66.9 °F 87% 29.97 in 7.0 mi SSE 4.6 mph - N/A   Mostly Cloudy
9:51 PM 72.0 °F 66.9 °F 84% 29.98 in 10.0 mi South 6.9 mph - N/A   Mostly Cloudy
10:51 PM 71.1 °F 66.0 °F 84% 29.97 in 10.0 mi South 8.1 mph - N/A   Mostly Cloudy
11:51 PM 70.0 °F 66.0 °F 87% 29.95 in 10.0 mi SSE 8.1 mph - N/A   Mostly Cloudy